Location: St. Louis
(38.6270°N, 90.1994°W)
Time: 01:35:56
(UTC-06:00)

Transit 2A - Pass Details

Date: 05 December 2021
Orbit: 591 x 966 km, 66.7° (Epoch: 24 January)

Event Time Altitude Azimuth Distance (km) Brightness Sun altitude
Rises 23:51:28 0° 223° (SW) 3,260 - -73.9°
Reaches altitude 10° 23:53:51 10° 229° (SW) 2,392 - -73.9°
Maximum altitude 23:59:14 50° 304° (NW) 1,105 - -73.8°
Drops below altitude 10° 00:05:10 10° 19° (NNE) 2,628 - -73.6°
Sets 00:07:54 0° 25° (NNE) 3,610 - -73.5°
